No particular awareness of the weather is required.    There are no Weather-warnings


Meteo18 Weather Cam more information Meteo18 Weather Cam


Thunder radar more information blitzortung!


Rain radar more information rain snow radar


Visit our other weather sites:

Template documentation
and downloads

And another site



Weather Underground History page Text

Daily Summary for January 21, 2018 Units:  English    Metric   Both
« Previous Day
Next Day »
Daily Weekly Monthly Yearly Custom
  High: Low: Average:
Temperature: TemperatureC °F 6.8 °F 8.6 °F
Dew Point: DewpointC °F 6.0 °F 7.4 °F
Humidity: Humidity % 81 % 92 %
Wind Speed: WindSpeedKMH mph 0.0 mph 9.7 mph
Wind Gust: WindSpeedGustKMH mph - -
Wind:- - WSW
Pressure: PressurehPa in 1009.4 in -
Precipitation: 2.0 in    
Historical Graphs
 
 
Tabular Data for January 21, 2018
Time Temperature Dew Point Pressure Wind Wind Speed Wind Gust Humidity Rainfall Rate (Hourly)
TemperatureC °F DewpointC °F PressurehPa in Calm     Humidity % HourlyPrecipMM in
00:04 10.1 °F 7.3 °F 1009.4 in WNW 22.7 mph 33.8 mph 83 % 0.0 in
00:10 10.1 °F 7.3 °F 1009.4 in West 19.5 mph 32.2 mph 83 % 0.0 in
00:16 9.9 °F 7.0 °F 1009.7 in West 24.1 mph 35.4 mph 82 % 0.0 in
00:22 9.9 °F 7.0 °F 1009.7 in West 9.7 mph 27.4 mph 82 % 0.0 in
00:28 9.8 °F 6.9 °F 1010.0 in West 17.7 mph 33.8 mph 82 % 0.0 in
00:34 9.7 °F 7.0 °F 1010.0 in WSW 20.9 mph 20.9 mph 83 % 0.0 in
00:40 9.6 °F 6.9 °F 1010.4 in West 14.3 mph 22.5 mph 83 % 0.0 in
00:46 9.5 °F 6.8 °F 1010.4 in West 13.0 mph 29.0 mph 83 % 0.0 in
00:52 9.4 °F 6.7 °F 1010.4 in West 19.5 mph 27.4 mph 83 % 0.0 in
00:58 9.4 °F 6.5 °F 1010.4 in WSW 20.9 mph 24.1 mph 82 % 0.0 in
01:04 9.3 °F 6.4 °F 1010.7 in WNW 9.7 mph 20.9 mph 82 % 0.0 in
01:10 9.3 °F 6.2 °F 1010.7 in WNW 22.7 mph 27.4 mph 81 % 0.0 in
01:16 9.3 °F 6.4 °F 1011.1 in WNW 4.7 mph 19.3 mph 82 % 0.0 in
01:22 9.2 °F 6.3 °F 1011.1 in WSW 19.5 mph 29.0 mph 82 % 0.0 in
01:28 9.3 °F 6.4 °F 1011.4 in WNW 17.7 mph 29.0 mph 82 % 0.0 in
01:34 9.1 °F 6.2 °F 1011.4 in WNW 11.1 mph 14.5 mph 82 % 0.0 in
01:40 9.1 °F 6.4 °F 1011.4 in WNW 13.0 mph 22.5 mph 83 % 0.0 in
01:46 9.1 °F 6.4 °F 1011.7 in West 7.9 mph 19.3 mph 83 % 0.0 in
01:52 9.1 °F 6.5 °F 1011.7 in WSW 24.1 mph 24.1 mph 84 % 0.0 in
01:58 9.1 °F 6.5 °F 1011.7 in West 13.0 mph 29.0 mph 84 % 0.0 in
02:04 9.1 °F 6.7 °F 1012.1 in WNW 17.7 mph 22.5 mph 85 % 0.0 in
02:10 9.1 °F 6.7 °F 1012.1 in WSW 11.1 mph 19.3 mph 85 % 0.0 in
02:16 9.1 °F 6.7 °F 1012.1 in West 9.7 mph 24.1 mph 85 % 0.0 in
02:22 9.1 °F 6.7 °F 1012.4 in West 22.7 mph 24.1 mph 85 % 0.0 in
02:28 9.0 °F 6.6 °F 1012.4 in NW 22.7 mph 30.6 mph 85 % 0.0 in
02:34 9.0 °F 6.8 °F 1012.4 in WSW 13.0 mph 24.1 mph 86 % 0.0 in
02:40 9.0 °F 6.8 °F 1012.8 in WNW 19.5 mph 30.6 mph 86 % 0.0 in
02:46 9.0 °F 6.6 °F 1012.8 in WNW 14.3 mph 29.0 mph 85 % 0.0 in
02:52 9.0 °F 6.6 °F 1013.1 in WNW 17.7 mph 17.7 mph 85 % 0.0 in
02:58 8.9 °F 6.5 °F 1013.1 in WNW 20.9 mph 45.1 mph 85 % 0.0 in
03:04 8.8 °F 6.4 °F 1013.4 in West 19.5 mph 25.7 mph 85 % 0.0 in
03:10 8.9 °F 6.5 °F 1013.4 in West 14.3 mph 32.2 mph 85 % 0.0 in
03:17 8.9 °F 6.5 °F 1013.4 in West 17.7 mph 25.7 mph 85 % 0.0 in
03:23 8.8 °F 6.4 °F 1013.4 in WNW 22.7 mph 29.0 mph 85 % 0.0 in
03:29 8.8 °F 6.4 °F 1013.4 in West 17.7 mph 25.7 mph 85 % 0.0 in
03:35 8.7 °F 6.3 °F 1013.4 in WNW 9.7 mph 14.5 mph 85 % 0.0 in
03:41 8.7 °F 6.3 °F 1013.4 in WNW 13.0 mph 17.7 mph 85 % 0.0 in
03:47 8.7 °F 6.1 °F 1013.8 in West 13.0 mph 22.5 mph 84 % 0.0 in
03:53 8.7 °F 6.1 °F 1013.8 in WNW 3.2 mph 17.7 mph 84 % 0.0 in
03:59 8.7 °F 6.1 °F 1013.8 in WNW 9.7 mph 24.1 mph 84 % 0.0 in
04:05 8.7 °F 6.1 °F 1013.8 in WSW 14.3 mph 16.1 mph 84 % 0.0 in
04:11 8.6 °F 6.0 °F 1014.1 in WSW 11.1 mph 20.9 mph 84 % 0.0 in
04:17 8.6 °F 6.0 °F 1014.1 in WNW 11.1 mph 32.2 mph 84 % 0.0 in
04:23 8.6 °F 6.0 °F 1014.1 in WNW 14.3 mph 19.3 mph 84 % 0.0 in
04:29 8.6 °F 6.0 °F 1014.4 in NW 19.5 mph 19.5 mph 84 % 0.0 in
04:35 8.6 °F 6.0 °F 1014.4 in West 1.4 mph 16.1 mph 84 % 0.0 in
04:41 8.6 °F 6.0 °F 1014.4 in NNW 4.7 mph 27.4 mph 84 % 0.0 in
04:47 8.5 °F 6.1 °F 1014.4 in West 9.7 mph 12.9 mph 85 % 0.0 in
04:53 8.4 °F 6.0 °F 1014.8 in WNW 14.3 mph 14.5 mph 85 % 0.0 in
04:59 8.3 °F 6.1 °F 1014.8 in West 11.1 mph 17.7 mph 86 % 0.0 in
05:05 8.2 °F 6.0 °F 1014.8 in West 1.4 mph 11.3 mph 86 % 0.0 in
05:11 8.1 °F 6.1 °F 1015.1 in WNW 14.3 mph 14.5 mph 87 % 0.0 in
05:17 8.0 °F 6.1 °F 1015.1 in West 4.7 mph 17.7 mph 88 % 0.0 in
05:23 7.9 °F 6.2 °F 1015.1 in WNW 13.0 mph 13.0 mph 89 % 0.0 in
05:29 7.9 °F 6.2 °F 1015.1 in WNW 7.9 mph 16.1 mph 89 % 0.0 in
05:35 7.8 °F 6.1 °F 1015.5 in WNW 11.1 mph 12.9 mph 89 % 0.0 in
05:41 7.7 °F 6.2 °F 1015.5 in WSW 4.7 mph 11.3 mph 90 % 0.0 in
05:47 7.8 °F 6.3 °F 1015.5 in West 9.7 mph 14.5 mph 90 % 0.0 in
05:53 7.8 °F 6.1 °F 1015.5 in WNW 9.7 mph 16.1 mph 89 % 0.0 in
05:59 7.9 °F 6.2 °F 1015.5 in NW 7.9 mph 16.1 mph 89 % 0.0 in
06:05 7.9 °F 6.0 °F 1015.5 in WNW 6.4 mph 16.1 mph 88 % 0.0 in
06:11 7.9 °F 6.0 °F 1015.5 in WSW 3.2 mph 11.3 mph 88 % 0.0 in
06:17 7.9 °F 6.0 °F 1015.5 in NW 3.2 mph 8.0 mph 88 % 0.0 in
06:23 7.8 °F 6.1 °F 1015.8 in WNW 7.9 mph 9.7 mph 89 % 0.0 in
06:29 7.8 °F 6.1 °F 1016.1 in WNW 9.7 mph 11.3 mph 89 % 0.0 in
06:35 7.9 °F 6.2 °F 1016.1 in NNW 3.2 mph 12.9 mph 89 % 0.0 in
06:41 7.9 °F 6.2 °F 1016.5 in WNW 1.4 mph 11.3 mph 89 % 0.0 in
06:47 7.8 °F 6.1 °F 1016.1 in WNW 3.2 mph 9.7 mph 89 % 0.0 in
06:53 7.9 °F 6.2 °F 1016.5 in NW 6.4 mph 8.0 mph 89 % 0.0 in
06:59 7.8 °F 6.1 °F 1016.5 in WNW 3.2 mph 4.8 mph 89 % 0.0 in
07:05 7.8 °F 6.1 °F 1016.5 in NW 4.7 mph 6.4 mph 89 % 0.0 in
07:11 7.8 °F 6.3 °F 1016.5 in West 1.4 mph 8.0 mph 90 % 0.0 in
07:17 7.7 °F 6.2 °F 1016.5 in WNW 3.2 mph 4.8 mph 90 % 0.0 in
07:23 7.7 °F 6.2 °F 1016.8 in NW 4.7 mph 6.4 mph 90 % 0.0 in
07:35 7.7 °F 6.2 °F 1016.8 in WNW 1.4 mph 3.2 mph 90 % 0.0 in
07:41 7.6 °F 6.1 °F 1017.2 in West 1.4 mph 4.8 mph 90 % 0.0 in
07:47 7.6 °F 6.1 °F 1016.8 in West 1.4 mph 4.8 mph 90 % 0.0 in
08:05 7.6 °F 6.1 °F 1017.5 in West 3.2 mph 6.4 mph 90 % 0.0 in
08:11 7.6 °F 6.1 °F 1017.5 in WNW 3.2 mph 6.4 mph 90 % 0.0 in
08:17 7.5 °F 6.1 °F 1017.5 in Calm   3.2 mph 91 % 0.0 in
08:23 7.4 °F 6.0 °F 1017.5 in West 4.7 mph 6.4 mph 91 % 0.0 in
08:29 7.5 °F 6.1 °F 1017.5 in WSW 1.4 mph 1.6 mph 91 % 0.0 in
08:35 7.4 °F 6.0 °F 1017.5 in West 6.4 mph 8.0 mph 91 % 0.0 in
08:41 7.4 °F 6.0 °F 1017.8 in West 3.2 mph 4.8 mph 91 % 0.0 in
08:47 7.3 °F 6.1 °F 1017.8 in Calm   3.2 mph 92 % 0.0 in
08:53 7.3 °F 6.1 °F 1017.8 in Calm   1.6 mph 92 % 0.0 in
08:59 7.2 °F 6.1 °F 1017.8 in Calm   1.6 mph 93 % 0.0 in
09:11 7.1 °F 6.2 °F 1017.8 in Calm   1.6 mph 94 % 0.0 in
09:17 7.1 °F 6.2 °F 1017.8 in Calm     94 % 0.0 in
09:23 7.1 °F 6.2 °F 1017.8 in Calm     94 % 0.0 in
09:29 7.1 °F 6.2 °F 1018.2 in SW 1.6 mph 1.6 mph 94 % 0.0 in
09:35 7.1 °F 6.2 °F 1018.2 in Calm     94 % 0.0 in
09:47 7.0 °F 6.1 °F 1018.2 in Calm   1.6 mph 94 % 0.3 in
09:59 7.0 °F 6.3 °F 1018.5 in Calm   1.6 mph 95 % 0.5 in
10:05 7.0 °F 6.3 °F 1018.8 in Calm   1.6 mph 95 % 0.5 in
10:12 7.1 °F 6.4 °F 1018.8 in Calm   1.6 mph 95 % 0.5 in
10:18 6.9 °F 6.2 °F 1018.5 in Calm   1.6 mph 95 % 0.5 in
10:24 6.9 °F 6.2 °F 1018.5 in Calm   1.6 mph 95 % 0.5 in
10:30 6.9 °F 6.2 °F 1018.8 in East 1.4 mph 3.2 mph 95 % 0.5 in
10:36 6.8 °F 6.1 °F 1018.8 in Calm   3.2 mph 95 % 0.5 in
10:42 6.8 °F 6.2 °F 1018.5 in East 1.4 mph 3.2 mph 96 % 0.5 in
10:48 6.8 °F 6.2 °F 1018.8 in Calm   3.2 mph 96 % 0.5 in
10:54 6.9 °F 6.3 °F 1018.8 in ENE 1.4 mph 1.6 mph 96 % 0.3 in
11:00 6.9 °F 6.3 °F 1018.8 in Calm     96 % 0.3 in
11:06 6.9 °F 6.3 °F 1018.8 in Calm   3.2 mph 96 % 0.3 in
11:12 6.9 °F 6.3 °F 1018.8 in Calm   1.6 mph 96 % 0.0 in
11:18 6.9 °F 6.3 °F 1018.8 in Calm     96 % 0.3 in
11:24 6.9 °F 6.3 °F 1018.8 in Calm     96 % 0.3 in
11:30 6.9 °F 6.3 °F 1018.8 in SE 3.2 mph 3.2 mph 96 % 0.3 in
11:36 6.8 °F 6.2 °F 1018.8 in ESE 1.4 mph 3.2 mph 96 % 0.3 in
11:42 6.8 °F 6.2 °F 1018.8 in SSE 3.2 mph 4.8 mph 96 % 0.3 in
11:48 6.8 °F 6.2 °F 1018.8 in East 1.4 mph 3.2 mph 96 % 0.3 in
11:54 6.9 °F 6.3 °F 1018.5 in SSW 6.4 mph 8.0 mph 96 % 0.3 in
12:00 7.1 °F 6.7 °F 1018.8 in SW 3.2 mph 6.4 mph 97 % 0.3 in
12:06 7.2 °F 6.6 °F 1018.8 in SW 1.4 mph 3.2 mph 96 % 0.3 in
12:12 7.3 °F 6.7 °F 1018.8 in SW 1.4 mph 4.8 mph 96 % 0.3 in
12:19 7.3 °F 6.7 °F 1018.5 in WSW 6.4 mph 8.0 mph 96 % 0.0 in
12:25 7.3 °F 6.7 °F 1018.5 in SSW 3.2 mph 9.7 mph 96 % 0.0 in
12:31 7.4 °F 6.8 °F 1018.5 in WSW 1.4 mph 8.0 mph 96 % 0.0 in
12:37 7.4 °F 6.8 °F 1018.2 in SW 6.4 mph 9.7 mph 96 % 0.0 in
12:43 7.4 °F 6.8 °F 1018.2 in WSW 3.2 mph 8.0 mph 96 % 0.3 in
12:49 7.4 °F 6.8 °F 1018.2 in SSW 7.9 mph 9.7 mph 96 % 0.3 in
12:55 7.5 °F 6.9 °F 1018.2 in SW 6.4 mph 11.3 mph 96 % 0.3 in
13:01 7.5 °F 6.9 °F 1018.2 in SW 7.9 mph 11.3 mph 96 % 0.3 in
13:07 7.6 °F 7.0 °F 1018.2 in SW 6.4 mph 8.0 mph 96 % 0.3 in
13:13 7.6 °F 7.0 °F 1018.2 in WSW 3.2 mph 16.1 mph 96 % 0.3 in
13:19 7.6 °F 7.0 °F 1017.8 in SSW 9.7 mph 11.3 mph 96 % 0.3 in
13:25 7.6 °F 7.0 °F 1017.8 in WSW 11.1 mph 14.5 mph 96 % 0.3 in
13:31 7.7 °F 7.1 °F 1017.8 in WSW 4.7 mph 12.9 mph 96 % 0.3 in
13:37 7.7 °F 7.1 °F 1017.8 in WSW 13.0 mph 13.0 mph 96 % 0.3 in
13:43 7.7 °F 7.1 °F 1017.8 in SW 6.4 mph 14.5 mph 96 % 0.0 in
13:49 7.7 °F 7.1 °F 1017.8 in WSW 6.4 mph 16.1 mph 96 % 0.0 in
13:55 7.7 °F 7.1 °F 1017.8 in SW 4.7 mph 8.0 mph 96 % 0.0 in
14:01 7.7 °F 7.1 °F 1017.8 in SW 7.9 mph 12.9 mph 96 % 0.0 in
14:07 7.7 °F 7.1 °F 1017.8 in West 6.4 mph 8.0 mph 96 % 0.0 in
14:13 7.7 °F 7.1 °F 1017.5 in WSW 4.7 mph 14.5 mph 96 % 0.0 in
14:19 7.7 °F 7.1 °F 1017.5 in WSW 3.2 mph 11.3 mph 96 % 0.0 in
14:25 7.7 °F 7.1 °F 1017.5 in SSW 3.2 mph 17.7 mph 96 % 0.0 in
14:31 7.7 °F 7.1 °F 1017.5 in SW 7.9 mph 12.9 mph 96 % 0.0 in
14:37 7.7 °F 7.1 °F 1017.5 in West 6.4 mph 9.7 mph 96 % 0.0 in
14:43 7.7 °F 7.1 °F 1017.5 in SW 11.3 mph 11.3 mph 96 % 0.3 in
14:49 7.6 °F 7.0 °F 1017.5 in SW 1.4 mph 9.7 mph 96 % 0.3 in
14:55 7.7 °F 7.1 °F 1017.5 in SSW 7.9 mph 11.3 mph 96 % 0.3 in
15:01 7.7 °F 7.1 °F 1017.5 in WSW 9.7 mph 16.1 mph 96 % 0.3 in
15:07 7.7 °F 7.3 °F 1017.5 in SW 7.9 mph 14.5 mph 97 % 0.3 in
15:13 7.7 °F 7.3 °F 1017.5 in SW 7.9 mph 9.7 mph 97 % 0.3 in
15:19 7.8 °F 7.4 °F 1017.5 in SW 4.7 mph 9.7 mph 97 % 0.3 in
15:25 7.8 °F 7.4 °F 1017.2 in SSW 7.9 mph 12.9 mph 97 % 0.3 in
15:31 7.8 °F 7.4 °F 1017.2 in SW 6.4 mph 14.5 mph 97 % 0.5 in
15:37 7.8 °F 7.4 °F 1017.2 in SW 11.1 mph 16.1 mph 97 % 0.5 in
15:43 7.8 °F 7.4 °F 1016.8 in SSW 9.7 mph 16.1 mph 97 % 0.3 in
15:49 7.8 °F 7.4 °F 1016.8 in SSW 11.1 mph 12.9 mph 97 % 0.3 in
15:55 7.8 °F 7.4 °F 1016.8 in SW 7.9 mph 14.5 mph 97 % 0.3 in
16:01 7.8 °F 7.4 °F 1016.8 in SSW 11.1 mph 16.1 mph 97 % 0.3 in
16:07 7.8 °F 7.4 °F 1016.8 in SSW 4.7 mph 16.1 mph 97 % 0.3 in
16:13 7.8 °F 7.4 °F 1016.8 in SSW 7.9 mph 12.9 mph 97 % 0.3 in
16:19 7.8 °F 7.4 °F 1016.8 in SW 11.1 mph 16.1 mph 97 % 0.3 in
16:25 7.9 °F 7.5 °F 1016.5 in SSW 6.4 mph 14.5 mph 97 % 0.3 in
16:31 7.9 °F 7.5 °F 1016.8 in SW 4.7 mph 9.7 mph 97 % 0.0 in
16:37 7.9 °F 7.5 °F 1016.5 in SW 7.9 mph 14.5 mph 97 % 0.0 in
16:43 8.0 °F 7.6 °F 1016.5 in SSW 6.4 mph 12.9 mph 97 % 0.0 in
16:49 8.1 °F 7.7 °F 1016.5 in SW 6.4 mph 11.3 mph 97 % 0.0 in
16:55 8.1 °F 7.7 °F 1016.5 in SW 4.7 mph 8.0 mph 97 % 0.0 in
17:01 8.1 °F 7.7 °F 1016.5 in SW 4.7 mph 6.4 mph 97 % 0.0 in
17:07 8.2 °F 7.8 °F 1016.5 in SW 3.2 mph 3.2 mph 97 % 0.0 in
17:13 8.3 °F 7.9 °F 1016.5 in SW 6.4 mph 8.0 mph 97 % 0.3 in
17:19 8.4 °F 8.1 °F 1016.5 in SW 4.7 mph 8.0 mph 98 % 0.3 in
17:25 8.6 °F 8.3 °F 1016.5 in SW 3.2 mph 6.4 mph 98 % 0.3 in
17:31 8.7 °F 8.4 °F 1016.5 in SW 3.2 mph 8.0 mph 98 % 0.3 in
17:37 8.8 °F 8.5 °F 1016.5 in WNW 1.4 mph 4.8 mph 98 % 0.3 in
17:43 8.9 °F 8.6 °F 1016.5 in SW 3.2 mph 8.0 mph 98 % 0.3 in
17:49 9.2 °F 8.9 °F 1016.5 in West 3.2 mph 6.4 mph 98 % 0.3 in
17:55 9.6 °F 9.3 °F 1016.5 in West 7.9 mph 11.3 mph 98 % 0.3 in
18:01 9.8 °F 9.5 °F 1016.5 in SW 4.7 mph 17.7 mph 98 % 0.3 in
18:07 10.1 °F 9.8 °F 1016.1 in WSW 9.7 mph 14.5 mph 98 % 0.3 in
18:13 10.2 °F 9.9 °F 1016.1 in West 7.9 mph 19.3 mph 98 % 0.0 in
18:19 10.4 °F 10.1 °F 1016.1 in West 17.7 mph 20.9 mph 98 % 0.0 in
18:25 10.6 °F 10.3 °F 1016.1 in WSW 17.7 mph 20.9 mph 98 % 0.0 in
18:31 10.7 °F 10.2 °F 1016.1 in West 16.3 mph 20.9 mph 97 % 0.0 in
18:37 10.8 °F 10.3 °F 1016.1 in West 13.0 mph 25.7 mph 97 % 0.0 in
18:43 10.8 °F 10.3 °F 1016.1 in West 11.1 mph 19.3 mph 97 % 0.0 in
18:49 10.9 °F 10.3 °F 1016.1 in West 13.0 mph 19.3 mph 96 % 0.0 in
18:55 10.9 °F 10.3 °F 1016.1 in West 6.4 mph 17.7 mph 96 % 0.0 in
19:01 10.9 °F 10.3 °F 1016.1 in West 14.3 mph 22.5 mph 96 % 0.0 in
19:07 10.9 °F 10.3 °F 1016.1 in WNW 13.0 mph 17.7 mph 96 % 0.0 in
19:13 10.9 °F 10.3 °F 1016.1 in West 14.3 mph 24.1 mph 96 % 0.0 in
19:19 10.9 °F 10.3 °F 1016.5 in West 14.3 mph 27.4 mph 96 % 0.0 in
19:25 10.9 °F 10.3 °F 1016.5 in WSW 14.3 mph 25.7 mph 96 % 0.0 in
19:31 10.9 °F 10.3 °F 1016.5 in WNW 14.3 mph 22.5 mph 96 % 0.0 in
19:37 10.9 °F 10.3 °F 1016.5 in West 11.1 mph 19.3 mph 96 % 0.0 in
19:43 10.9 °F 10.3 °F 1016.8 in West 11.1 mph 20.9 mph 96 % 0.0 in
19:49 10.9 °F 10.3 °F 1016.8 in West 22.7 mph 25.7 mph 96 % 0.0 in
19:55 10.9 °F 10.3 °F 1016.8 in West 17.7 mph 22.5 mph 96 % 0.0 in
20:01 10.9 °F 10.3 °F 1016.8 in West 16.3 mph 22.5 mph 96 % 0.3 in
20:07 10.8 °F 10.2 °F 1016.5 in SW 19.5 mph 22.5 mph 96 % 0.3 in
20:13 10.9 °F 10.3 °F 1016.8 in WNW 20.9 mph 30.6 mph 96 % 0.3 in
20:19 10.9 °F 10.1 °F 1016.8 in West 17.7 mph 25.7 mph 95 % 0.3 in
20:25 10.9 °F 10.1 °F 1016.8 in WNW 11.1 mph 20.9 mph 95 % 0.3 in
20:31 10.8 °F 10.0 °F 1016.8 in West 9.7 mph 22.5 mph 95 % 0.3 in
20:37 10.8 °F 10.2 °F 1016.8 in NW 7.9 mph 17.7 mph 96 % 0.3 in
20:43 10.8 °F 10.2 °F 1016.5 in West 13.0 mph 20.9 mph 96 % 0.3 in
20:49 10.8 °F 10.2 °F 1016.5 in West 13.0 mph 24.1 mph 96 % 0.3 in
20:55 10.8 °F 10.2 °F 1016.5 in WSW 20.9 mph 27.4 mph 96 % 0.3 in
21:01 10.8 °F 10.0 °F 1016.8 in West 7.9 mph 20.9 mph 95 % 0.0 in
21:14 10.8 °F 10.0 °F 1016.8 in West 19.5 mph 27.4 mph 95 % 0.0 in
21:20 10.8 °F 10.0 °F 1016.8 in West 17.7 mph 20.9 mph 95 % 0.0 in
21:26 10.7 °F 9.9 °F 1016.5 in WSW 16.3 mph 32.2 mph 95 % 0.0 in
21:32 10.7 °F 9.9 °F 1016.5 in West 13.0 mph 29.0 mph 95 % 0.0 in
21:38 10.7 °F 9.9 °F 1016.5 in WSW 24.1 mph 27.4 mph 95 % 0.0 in
21:44 10.6 °F 9.8 °F 1016.8 in West 30.6 mph 32.2 mph 95 % 0.0 in
21:50 10.6 °F 9.8 °F 1016.5 in WSW 25.9 mph 25.9 mph 95 % 0.0 in
21:56 10.6 °F 9.8 °F 1016.5 in West 27.4 mph 33.8 mph 95 % 0.0 in
22:02 10.6 °F 9.8 °F 1016.5 in West 17.7 mph 27.4 mph 95 % 0.0 in
22:08 10.6 °F 9.8 °F 1016.5 in West 24.1 mph 32.2 mph 95 % 0.0 in
22:14 10.6 °F 9.7 °F 1016.5 in WSW 19.5 mph 24.1 mph 94 % 0.0 in
22:20 10.6 °F 9.7 °F 1016.5 in West 16.3 mph 22.5 mph 94 % 0.0 in
22:26 10.6 °F 9.8 °F 1016.8 in West 16.3 mph 27.4 mph 95 % 0.0 in
22:32 10.6 °F 9.7 °F 1016.8 in West 24.1 mph 27.4 mph 94 % 0.0 in
22:38 10.5 °F 9.7 °F 1016.5 in SW 9.7 mph 29.0 mph 95 % 0.0 in
22:44 10.4 °F 9.6 °F 1016.5 in West 14.3 mph 27.4 mph 95 % 0.0 in
22:50 10.4 °F 9.6 °F 1016.5 in WSW 20.9 mph 25.7 mph 95 % 0.0 in
23:02 10.4 °F 9.6 °F 1016.5 in West 19.5 mph 33.8 mph 95 % 0.0 in
23:08 10.5 °F 9.6 °F 1016.5 in West 17.7 mph 33.8 mph 94 % 0.0 in
23:14 10.6 °F 9.7 °F 1016.5 in WSW 22.7 mph 29.0 mph 94 % 0.0 in
23:20 10.5 °F 9.6 °F 1016.5 in WSW 14.3 mph 29.0 mph 94 % 0.0 in
23:32 10.3 °F 9.5 °F 1016.5 in WSW 19.5 mph 24.1 mph 95 % 0.0 in
23:38 10.3 °F 9.5 °F 1016.5 in WSW 16.3 mph 27.4 mph 95 % 0.0 in
23:50 10.4 °F 9.6 °F 1016.5 in West 24.1 mph 29.0 mph 95 % 0.3 in
23:56 10.5 °F 9.6 °F 1016.5 in West 14.3 mph 27.4 mph 94 % 0.3 in
Meteo18
Compliments of Weather Underground - 4 mb

Script developed by  Jim McMurry - jmcmurry@mwt.net Adapted for the template by  Wim van der Kuil - Leuven-Template.eu

You find our weather info also at:

European Weather Network

Weather Underground

Equipment we use:

Weather-station
Davis Vue

Weather-program
Meteobridge

Weather-server
Raspberry PI 2 B+

Provider
1 and 1

Davis Vue

Meteobridge

Raspberry PI 2 B+

1 and 1